• en France
  • Liste des pays
  • À 7 jours
  • Température de l'eau
  • Carte satellitaire
  • Carte météo
  • Widgets météo
  • user-avatar
    Se connecter

    Météo par heure à Albena

    Ce jour, 18 Novembre, Samedi

    Heure Température Précipitation Vent Pression Humidité
    00:00 +11°C° 0,5 mm 4 m/s 748 mmHg 94%
    01:00 +11°C° 0,5 mm 4 m/s 748 mmHg 94%
    02:00 +10°C° 0 mm 3 m/s 748 mmHg 92%
    03:00 +10°C° 1,1 mm 4 m/s 748 mmHg 92%
    04:00 +10°C° 1,1 mm 4 m/s 747 mmHg 93%
    05:00 +10°C° 1,1 mm 4 m/s 747 mmHg 93%
    06:00 +10°C° 1,4 mm 4 m/s 747 mmHg 93%
    07:00 +10°C° 1,4 mm 4 m/s 747 mmHg 93%
    08:00 +10°C° 1,4 mm 4 m/s 746 mmHg 93%
    09:00 +10°C° 1,4 mm 4 m/s 746 mmHg 93%
    10:00 +10°C° 1,4 mm 4 m/s 746 mmHg 92%
    11:00 +11°C° 1,4 mm 4 m/s 746 mmHg 92%
    12:00 +11°C° 1 mm 4 m/s 746 mmHg 91%
    13:00 +11°C° 1 mm 3 m/s 746 mmHg 90%
    14:00 +11°C° 1 mm 3 m/s 745 mmHg 89%
    15:00 +11°C° 0,1 mm 3 m/s 745 mmHg 90%
    16:00 +10°C° 0,1 mm 3 m/s 745 mmHg 90%
    17:00 +10°C° 0,1 mm 3 m/s 745 mmHg 90%
    18:00 +9°C° 0 mm 3 m/s 745 mmHg 91%
    19:00 +8°C° 0 mm 4 m/s 745 mmHg 92%
    20:00 +7°C° 0 mm 4 m/s 745 mmHg 92%
    21:00 +7°C° 0 mm 4 m/s 744 mmHg 92%
    22:00 +7°C° 0 mm 4 m/s 744 mmHg 92%
    23:00 +7°C° 0 mm 4 m/s 744 mmHg 92%

    Demain, 19 Novembre, Dimanche

    Heure Température Précipitation Vent Pression Humidité
    00:00 +7°C° 0 mm 4 m/s 744 mmHg 92%
    01:00 +7°C° 0 mm 4 m/s 744 mmHg 92%
    02:00 +7°C° 0 mm 4 m/s 744 mmHg 92%
    03:00 +7°C° 0 mm 4 m/s 744 mmHg 92%
    04:00 +6°C° 0 mm 4 m/s 744 mmHg 92%
    05:00 +6°C° 0 mm 4 m/s 743 mmHg 93%
    06:00 +6°C° 0 mm 4 m/s 743 mmHg 92%
    07:00 +6°C° 0 mm 4 m/s 743 mmHg 91%
    08:00 +7°C° 0 mm 3 m/s 743 mmHg 91%
    09:00 +7°C° 0 mm 4 m/s 744 mmHg 85%
    10:00 +8°C° 0 mm 4 m/s 744 mmHg 79%
    11:00 +10°C° 0 mm 4 m/s 744 mmHg 73%
    12:00 +10°C° 0,1 mm 4 m/s 744 mmHg 72%
    13:00 +10°C° 0,1 mm 4 m/s 743 mmHg 71%
    14:00 +11°C° 0,1 mm 4 m/s 743 mmHg 70%
    15:00 +10°C° 0,5 mm 3 m/s 743 mmHg 72%
    16:00 +9°C° 0,5 mm 3 m/s 742 mmHg 75%
    17:00 +9°C° 0,5 mm 3 m/s 742 mmHg 78%
    18:00 +9°C° 0,9 mm 3 m/s 742 mmHg 79%
    19:00 +8°C° 0,9 mm 3 m/s 742 mmHg 80%
    20:00 +8°C° 0,9 mm 2 m/s 742 mmHg 81%
    21:00 +8°C° 0,7 mm 3 m/s 742 mmHg 79%
    22:00 +8°C° 0,7 mm 3 m/s 742 mmHg 77%
    23:00 +7°C° 0,7 mm 3 m/s 742 mmHg 75%

    Après-demain, 20 Novembre, Lundi

    Heure Température Précipitation Vent Pression Humidité
    00:00 +6°C° 0,5 mm 4 m/s 741 mmHg 75%
    01:00 +6°C° 0,5 mm 5 m/s 741 mmHg 74%
    02:00 +6°C° 0,5 mm 5 m/s 741 mmHg 74%
    03:00 +6°C° 0 mm 5 m/s 742 mmHg 75%
    04:00 +6°C° 0 mm 5 m/s 742 mmHg 76%
    05:00 +4°C° 0 mm 6 m/s 742 mmHg 76%
    06:00 +5°C° 0 mm 5 m/s 742 mmHg 76%
    07:00 +5°C° 0 mm 5 m/s 743 mmHg 76%
    08:00 +3°C° 0 mm 5 m/s 743 mmHg 76%
    09:00 +4°C° 0,1 mm 6 m/s 744 mmHg 71%
    10:00 +5°C° 0,1 mm 6 m/s 744 mmHg 66%
    11:00 +5°C° 0,1 mm 6 m/s 744 mmHg 61%
    12:00 +5°C° 0,2 mm 6 m/s 744 mmHg 61%
    13:00 +5°C° 0,2 mm 7 m/s 744 mmHg 61%
    14:00 +5°C° 0,2 mm 7 m/s 744 mmHg 60%
    15:00 +5°C° 0,1 mm 7 m/s 744 mmHg 62%
    16:00 +5°C° 0,1 mm 7 m/s 744 mmHg 65%
    17:00 +4°C° 0,1 mm 6 m/s 745 mmHg 67%
    18:00 +4°C° 0 mm 6 m/s 745 mmHg 69%
    19:00 +4°C° 0 mm 6 m/s 745 mmHg 72%
    20:00 +3°C° 0 mm 6 m/s 746 mmHg 75%
    21:00 +3°C° 0 mm 6 m/s 746 mmHg 74%
    22:00 +3°C° 0 mm 6 m/s 746 mmHg 73%
    23:00 +2°C° 0 mm 6 m/s 747 mmHg 72%

    21 Novembre, Mardi

    Heure Température Précipitation Vent Pression Humidité
    00:00 +2°C° 0 mm 6 m/s 747 mmHg 73%
    01:00 +2°C° 0 mm 6 m/s 747 mmHg 74%
    02:00 +1°C° 0 mm 6 m/s 747 mmHg 75%
    03:00 +1°C° 0 mm 6 m/s 747 mmHg 76%
    04:00 +1°C° 0 mm 6 m/s 747 mmHg 77%
    05:00 0°C° 0 mm 5 m/s 748 mmHg 78%
    06:00 0°C° 0 mm 5 m/s 748 mmHg 78%
    07:00 0°C° 0 mm 5 m/s 748 mmHg 78%
    08:00 0°C° 0 mm 5 m/s 748 mmHg 78%
    09:00 +2°C° 0 mm 5 m/s 748 mmHg 71%
    10:00 +3°C° 0 mm 6 m/s 748 mmHg 63%
    11:00 +4°C° 0 mm 6 m/s 748 mmHg 56%
    12:00 +5°C° 0 mm 6 m/s 748 mmHg 52%
    13:00 +7°C° 0 mm 6 m/s 747 mmHg 48%
    14:00 +8°C° 0 mm 6 m/s 747 mmHg 45%
    15:00 +7°C° 0 mm 5 m/s 747 mmHg 48%
    16:00 +7°C° 0 mm 5 m/s 746 mmHg 51%
    17:00 +6°C° 0 mm 5 m/s 746 mmHg 54%
    18:00 +6°C° 0 mm 5 m/s 746 mmHg 55%
    19:00 +6°C° 0 mm 5 m/s 746 mmHg 57%
    20:00 +4°C° 0 mm 6 m/s 746 mmHg 59%
    21:00 +4°C° 0 mm 6 m/s 746 mmHg 61%
    22:00 +4°C° 0 mm 6 m/s 746 mmHg 63%
    23:00 +5°C° 0 mm 5 m/s 745 mmHg 64%

    22 Novembre, Mercredi

    Heure Température Précipitation Vent Pression Humidité
    00:00 +4°C° 0 mm 6 m/s 745 mmHg 64%
    01:00 +4°C° 0 mm 6 m/s 745 mmHg 65%
    02:00 +4°C° 0 mm 6 m/s 745 mmHg 65%
    03:00 +4°C° 0 mm 6 m/s 745 mmHg 68%
    04:00 +4°C° 0 mm 6 m/s 745 mmHg 70%
    05:00 +4°C° 0 mm 6 m/s 745 mmHg 73%
    06:00 +4°C° 0 mm 6 m/s 746 mmHg 76%
    07:00 +4°C° 0 mm 6 m/s 746 mmHg 78%
    08:00 +4°C° 0 mm 6 m/s 747 mmHg 81%
    09:00 +5°C° 0,1 mm 6 m/s 747 mmHg 78%
    10:00 +6°C° 0,1 mm 5 m/s 748 mmHg 75%
    11:00 +6°C° 0,1 mm 5 m/s 749 mmHg 71%
    12:00 +6°C° 0 mm 5 m/s 749 mmHg 67%
    13:00 +6°C° 0 mm 5 m/s 749 mmHg 64%
    14:00 +7°C° 0 mm 4 m/s 750 mmHg 60%
    15:00 +6°C° 0 mm 4 m/s 750 mmHg 60%
    16:00 +6°C° 0 mm 4 m/s 751 mmHg 60%
    17:00 +5°C° 0 mm 3 m/s 751 mmHg 60%
    18:00 +5°C° 0 mm 3 m/s 752 mmHg 61%
    19:00 +4°C° 0 mm 3 m/s 752 mmHg 61%
    20:00 +5°C° 0 mm 2 m/s 753 mmHg 62%
    21:00 +5°C° 0 mm 2 m/s 753 mmHg 63%
    22:00 +4°C° 0 mm 2 m/s 753 mmHg 63%
    23:00 +5°C° 0 mm 1 m/s 753 mmHg 64%

    23 Novembre, Jeudi

    Heure Température Précipitation Vent Pression Humidité
    00:00 +5°C° 0 mm 1 m/s 753 mmHg 64%
    01:00 +5°C° 0 mm 1 m/s 753 mmHg 65%
    02:00 +5°C° 0 mm 1 m/s 753 mmHg 65%
    03:00 +5°C° 0 mm 1 m/s 753 mmHg 66%
    04:00 +5°C° 0 mm 1 m/s 753 mmHg 66%
    05:00 +5°C° 0 mm 1 m/s 753 mmHg 67%
    06:00 +5°C° 0 mm 1 m/s 754 mmHg 68%
    07:00 +5°C° 0 mm 1 m/s 754 mmHg 69%
    08:00 +6°C° 0 mm 1 m/s 754 mmHg 70%
    09:00 +6°C° 0 mm 2 m/s 754 mmHg 66%
    10:00 +7°C° 0 mm 2 m/s 755 mmHg 62%
    11:00 +9°C° 0 mm 2 m/s 755 mmHg 58%
    12:00 +9°C° 0 mm 2 m/s 755 mmHg 58%
    13:00 +10°C° 0 mm 2 m/s 754 mmHg 58%
    14:00 +10°C° 0 mm 2 m/s 754 mmHg 58%
    15:00 +10°C° 0 mm 2 m/s 754 mmHg 62%
    16:00 +9°C° 0 mm 2 m/s 754 mmHg 67%
    17:00 +8°C° 0 mm 2 m/s 754 mmHg 72%
    18:00 +8°C° 0 mm 2 m/s 754 mmHg 74%
    19:00 +7°C° 0 mm 3 m/s 754 mmHg 76%
    20:00 +7°C° 0 mm 3 m/s 754 mmHg 78%
    21:00 +7°C° 0 mm 3 m/s 755 mmHg 80%
    22:00 +7°C° 0 mm 3 m/s 755 mmHg 81%
    23:00 +7°C° 0 mm 3 m/s 755 mmHg 83%
    Voir plus